Location: Palombina Nuova
(43.6167°N, 13.4000°E)
Time: 20:28:51
(UTC+00:00)

Cosmos 2100 Rocket - Pass Details

Date: 17 February 2020
Orbit: 955 x 1002 km, 82.9° (Epoch: 03 April)

Event Time Altitude Azimuth Distance (km) Brightness Sun altitude
Rises 04:53:56 0° 348° (NNW) 3,686 6.9 -13.1°
Reaches altitude 10° 04:56:29 10° 346° (NNW) 2,728 6.2 -12.7°
Maximum altitude 05:02:37 62° 267° (W) 1,078 4.0 -11.6°
Drops below altitude 10° 05:08:39 10° 188° (S) 2,683 6.3 -10.5°
Sets 05:11:09 0° 185° (S) 3,622 7.0 -10.0°
